Regional Weather Roundup
Issued by NWS

Home | Current Version | Previous Version | Graphics & Text | Print | Product List | Glossary On
Versions: 1 2 3 4 5 6 7 8 9 10 11 12 13 14 15 16 17 18 19 20 21 22 23 24 25 26 27 28 29 30 31 32 33 34 35 36 37 38 39 40 41 42 43 44 45 46 47 48 49 50
000
ASUS43 KOAX 182010
RWRNE

WEATHER ROUNDUP FOR NEBRASKA
NATIONAL WEATHER SERVICE OMAHA NE
200 PM CST THU DEC 18 2014

NOTES: SATELLITE DATA IS BEING USED TO AUGMENT CLOUD COVER ABOVE
       12000 FEET.
       "FAIR" INDICATES FEW OR NO CLOUDS BELOW 12,000 FEET WITH NO
       SIGNIFICANT WEATHER AND/OR OBSTRUCTIONS TO VISIBILITY.

  * THESE STATIONS DO NOT REPORT WEATHER SUCH AS RAIN...SNOW OR FOG.

NEZ001>004-019>022-054>056-182100-
NEBRASKA PANHANDLE

CITY           SKY/WX    TMP DP  RH WIND       PRES   REMARKS
SCOTTSBLUFF    SUNNY     20  16  84 NW5       30.03F FOG     WCI  13
ALLIANCE       SUNNY     29  24  82 W6        30.01F WCI  23
CHADRON        SUNNY     34  24  67 W5        30.02F WCI  30
KIMBALL        MOSUNNY   42  20  42 NW15      30.00S
SIDNEY         SUNNY     37  26  64 W6        30.02F WCI  32
$$

NEZ057>060-069>072-079>082-182100-
SOUTHWEST NEBRASKA

CITY           SKY/WX    TMP DP  RH WIND       PRES   REMARKS
NORTH PLATTE   CLOUDY    28  25  88 W6        30.08F FOG     WCI  22
IMPERIAL       MOSUNNY   26  24  92 CALM      30.06F
LEXINGTON      CLOUDY    29  26  88 SW9       30.11F WCI  20
MCCOOK         CLOUDY    28  25  88 SW5       30.10F WCI  23
OGALLALA       SUNNY     27  22  81 W3        30.05F
$$

NEZ005>010-023>029-035>040-094-182100-
NORTH CENTRAL NEBRASKA

CITY           SKY/WX    TMP DP  RH WIND       PRES   REMARKS
VALENTINE      CLOUDY    27  23  85 SW7       30.05F WCI  19
AINSWORTH      CLOUDY    27  25  89 SW7       30.05F WCI  20
BROKEN BOW     CLOUDY    29  25  85 SW9       30.08F WCI  20
O`NEILL        CLOUDY    28  26  94 S5        30.12S WCI  22
THEDFORD       CLOUDY    30  26  85 W7        30.05F WCI  23
$$

NEZ041-046>049-061>064-073>077-083>087-182100-
SOUTH CENTRAL NEBRASKA

CITY           SKY/WX    TMP DP  RH WIND       PRES   REMARKS
GRAND ISLAND   CLOUDY    28  24  85 S5        30.15F WCI  23
AURORA         CLOUDY    29  26  87 SW3       30.15F
HASTINGS       CLOUDY    29  24  82 SW5       30.13F WCI  24
HEBRON         CLOUDY    31  25  78 CALM      30.17S
HOLDREGE       CLOUDY    29  26  88 SW5       30.11F WCI  24
KEARNEY *      CLOUDY    28  25  86 S7        30.13S WCI  21
YORK           CLOUDY    28  25  86 SW3       30.16F
$$

NEZ011>018-030>034-042>045-182100-
NORTHEAST NEBRASKA

CITY           SKY/WX    TMP DP  RH WIND       PRES   REMARKS
NORFOLK        CLOUDY    29  23  78 SW7       30.15F WCI  22
ALBION         CLOUDY    28  23  81 S5        30.15S WCI  23
BLAIR          CLOUDY    31  26  84 S6        30.19F WCI  25
COLUMBUS *     CLOUDY    28  21  74 SW5       30.18F WCI  23
FREMONT        CLOUDY    32  27  80 S3        30.19F
TEKAMAH        CLOUDY    30  25  81 S6        30.21S WCI  24
WAYNE          CLOUDY    30  24  78 S7        30.17F WCI  23
$$

NEZ050>053-065>068-078-088>093-182100-
SOUTHEAST NEBRASKA

CITY           SKY/WX    TMP DP  RH WIND       PRES   REMARKS
LINCOLN        CLOUDY    31  26  82 CALM      30.20S
OMAHA EPPLEY   FLURRIES  31  25  78 SE6       30.22F WCI  25
BEATRICE       CLOUDY    31  27  86 CALM      30.18S
FALLS CITY     CLOUDY    30  26  85 E6        30.20F WCI  24
NEBRASKA CITY  CLOUDY    30  28  91 SE5       30.19F WCI  25
PLATTSMOUTH    CLOUDY    30  26  82 SE5       30.20S WCI  26
$$

NEZ044-045-051>053-067-182100-
OMAHA AREA

CITY           SKY/WX    TMP DP  RH WIND       PRES   REMARKS
OMAHA EPPLEY   FLURRIES  31  25  78 SE6       30.22F WCI  25
BLAIR          CLOUDY    31  26  84 S6        30.19F WCI  25
FREMONT        CLOUDY    32  27  80 S3        30.19F
MILLARD        CLOUDY    31  26  81 S3        30.20F
OFFUTT AFB     CLOUDY    31  26  82 SE5       30.20F WCI  26
PLATTSMOUTH    CLOUDY    30  26  82 SE5       30.20S WCI  26
WAHOO          CLOUDY    31  26  80 S3        30.19F
$$



USA.gov is the U.S. government's official web portal to all federal, state and local government web resources and services.